File Updated: 22-Dec-2023, Data version 2.0 deriv_screen =  250 
Site_Code,Country,City,Latitude,Longitude,Elevation_meters,Year_local,Month_local,Day_local,hour_local,Parameter_Code,Parameter_Name,Value,Units,Method_Code,Collection_Description,Analysis_Description,Conditions
KRSE,Korea,Seoul,37.5644,126.935,97,2020,10,12,6,28108,Estimated PM2.5 mass,21.9,Micrograms per cubic meter (ug/m3),183,Filter PM2.5 mass (28101) and Airphoton 3-wavelength integrating nephelometer. Dry scatter inferred to 550 nm using filter-specific kappa to account for aerosol hygroscopicity.,Nephelometry,Ambient local
KRSE,Korea,Seoul,37.5644,126.935,97,2020,10,12,7,28108,Estimated PM2.5 mass,17.6,Micrograms per cubic meter (ug/m3),183,Filter PM2.5 mass (28101) and Airphoton 3-wavelength integrating nephelometer. Dry scatter inferred to 550 nm using filter-specific kappa to account for aerosol hygroscopicity.,Nephelometry,Ambient local
KRSE,Korea,Seoul,37.5644,126.935,97,2020,10,12,8,28108,Estimated PM2.5 mass,8.6,Micrograms per cubic meter (ug/m3),183,Filter PM2.5 mass (28101) and Airphoton 3-wavelength integrating nephelometer. Dry scatter inferred to 550 nm using filter-specific kappa to account for aerosol hygroscopicity.,Nephelometry,Ambient local
KRSE,Korea,Seoul,37.5644,126.935,97,2020,10,12,9,28108,Estimated PM2.5 mass,4.3,Micrograms per cubic meter (ug/m3),183,Filter PM2.5 mass (28101) and Airphoton 3-wavelength integrating nephelometer. Dry scatter inferred to 550 nm using filter-specific kappa to account for aerosol hygroscopicity.,Nephelometry,Ambient local
KRSE,Korea,Seoul,37.5644,126.935,97,2020,10,12,10,28108,Estimated PM2.5 mass,4.4,Micrograms per cubic meter (ug/m3),183,Filter PM2.5 mass (28101) and Airphoton 3-wavelength integrating nephelometer. Dry scatter inferred to 550 nm using filter-specific kappa to account for aerosol hygroscopicity.,Nephelometry,Ambient local
KRSE,Korea,Seoul,37.5644,126.935,97,2020,10,12,11,28108,Estimated PM2.5 mass,4.9,Micrograms per cubic meter (ug/m3),183,Filter PM2.5 mass (28101) and Airphoton 3-wavelength integrating nephelometer. Dry scatter inferred to 550 nm using filter-specific kappa to account for aerosol hygroscopicity.,Nephelometry,Ambient local
KRSE,Korea,Seoul,37.5644,126.935,97,2020,10,12,12,28108,Estimated PM2.5 mass,5.3,Micrograms per cubic meter (ug/m3),183,Filter PM2.5 mass (28101) and Airphoton 3-wavelength integrating nephelometer. Dry scatter inferred to 550 nm using filter-specific kappa to account for aerosol hygroscopicity.,Nephelometry,Ambient local
KRSE,Korea,Seoul,37.5644,126.935,97,2020,10,12,13,28108,Estimated PM2.5 mass,5.9,Micrograms per cubic meter (ug/m3),183,Filter PM2.5 mass (28101) and Airphoton 3-wavelength integrating nephelometer. Dry scatter inferred to 550 nm using filter-specific kappa to account for aerosol hygroscopicity.,Nephelometry,Ambient local
KRSE,Korea,Seoul,37.5644,126.935,97,2020,10,12,14,28108,Estimated PM2.5 mass,6,Micrograms per cubic meter (ug/m3),183,Filter PM2.5 mass (28101) and Airphoton 3-wavelength integrating nephelometer. Dry scatter inferred to 550 nm using filter-specific kappa to account for aerosol hygroscopicity.,Nephelometry,Ambient local
KRSE,Korea,Seoul,37.5644,126.935,97,2020,10,12,15,28108,Estimated PM2.5 mass,6.1,Micrograms per cubic meter (ug/m3),183,Filter PM2.5 mass (28101) and Airphoton 3-wavelength integrating nephelometer. Dry scatter inferred to 550 nm using filter-specific kappa to account for aerosol hygroscopicity.,Nephelometry,Ambient local
KRSE,Korea,Seoul,37.5644,126.935,97,2020,10,12,16,28108,Estimated PM2.5 mass,6.2,Micrograms per cubic meter (ug/m3),183,Filter PM2.5 mass (28101) and Airphoton 3-wavelength integrating nephelometer. Dry scatter inferred to 550 nm using filter-specific kappa to account for aerosol hygroscopicity.,Nephelometry,Ambient local
KRSE,Korea,Seoul,37.5644,126.935,97,2020,10,12,17,28108,Estimated PM2.5 mass,6.4,Micrograms per cubic meter (ug/m3),183,Filter PM2.5 mass (28101) and Airphoton 3-wavelength integrating nephelometer. Dry scatter inferred to 550 nm using filter-specific kappa to account for aerosol hygroscopicity.,Nephelometry,Ambient local
KRSE,Korea,Seoul,37.5644,126.935,97,2020,10,12,18,28108,Estimated PM2.5 mass,6.3,Micrograms per cubic meter (ug/m3),183,Filter PM2.5 mass (28101) and Airphoton 3-wavelength integrating nephelometer. Dry scatter inferred to 550 nm using filter-specific kappa to account for aerosol hygroscopicity.,Nephelometry,Ambient local
KRSE,Korea,Seoul,37.5644,126.935,97,2020,10,12,19,28108,Estimated PM2.5 mass,6.3,Micrograms per cubic meter (ug/m3),183,Filter PM2.5 mass (28101) and Airphoton 3-wavelength integrating nephelometer. Dry scatter inferred to 550 nm using filter-specific kappa to account for aerosol hygroscopicity.,Nephelometry,Ambient local
KRSE,Korea,Seoul,37.5644,126.935,97,2020,10,12,20,28108,Estimated PM2.5 mass,6.3,Micrograms per cubic meter (ug/m3),183,Filter PM2.5 mass (28101) and Airphoton 3-wavelength integrating nephelometer. Dry scatter inferred to 550 nm using filter-specific kappa to account for aerosol hygroscopicity.,Nephelometry,Ambient local
KRSE,Korea,Seoul,37.5644,126.935,97,2020,10,12,21,28108,Estimated PM2.5 mass,6.7,Micrograms per cubic meter (ug/m3),183,Filter PM2.5 mass (28101) and Airphoton 3-wavelength integrating nephelometer. Dry scatter inferred to 550 nm using filter-specific kappa to account for aerosol hygroscopicity.,Nephelometry,Ambient local
KRSE,Korea,Seoul,37.5644,126.935,97,2020,10,12,22,28108,Estimated PM2.5 mass,7.2,Micrograms per cubic meter (ug/m3),183,Filter PM2.5 mass (28101) and Airphoton 3-wavelength integrating nephelometer. Dry scatter inferred to 550 nm using filter-specific kappa to account for aerosol hygroscopicity.,Nephelometry,Ambient local
KRSE,Korea,Seoul,37.5644,126.935,97,2020,10,12,23,28108,Estimated PM2.5 mass,6.6,Micrograms per cubic meter (ug/m3),183,Filter PM2.5 mass (28101) and Airphoton 3-wavelength integrating nephelometer. Dry scatter inferred to 550 nm using filter-specific kappa to account for aerosol hygroscopicity.,Nephelometry,Ambient local
KRSE,Korea,Seoul,37.5644,126.935,97,2020,10,13,0,28108,Estimated PM2.5 mass,5.9,Micrograms per cubic meter (ug/m3),183,Filter PM2.5 mass (28101) and Airphoton 3-wavelength integrating nephelometer. Dry scatter inferred to 550 nm using filter-specific kappa to account for aerosol hygroscopicity.,Nephelometry,Ambient local
KRSE,Korea,Seoul,37.5644,126.935,97,2020,10,13,1,28108,Estimated PM2.5 mass,6.2,Micrograms per cubic meter (ug/m3),183,Filter PM2.5 mass (28101) and Airphoton 3-wavelength integrating nephelometer. Dry scatter inferred to 550 nm using filter-specific kappa to account for aerosol hygroscopicity.,Nephelometry,Ambient local
KRSE,Korea,Seoul,37.5644,126.935,97,2020,10,13,2,28108,Estimated PM2.5 mass,6.7,Micrograms per cubic meter (ug/m3),183,Filter PM2.5 mass (28101) and Airphoton 3-wavelength integrating nephelometer. Dry scatter inferred to 550 nm using filter-specific kappa to account for aerosol hygroscopicity.,Nephelometry,Ambient local
KRSE,Korea,Seoul,37.5644,126.935,97,2020,10,13,3,28108,Estimated PM2.5 mass,7.3,Micrograms per cubic meter (ug/m3),183,Filter PM2.5 mass (28101) and Airphoton 3-wavelength integrating nephelometer. Dry scatter inferred to 550 nm using filter-specific kappa to account for aerosol hygroscopicity.,Nephelometry,Ambient local
KRSE,Korea,Seoul,37.5644,126.935,97,2020,10,13,4,28108,Estimated PM2.5 mass,5.7,Micrograms per cubic meter (ug/m3),183,Filter PM2.5 mass (28101) and Airphoton 3-wavelength integrating nephelometer. Dry scatter inferred to 550 nm using filter-specific kappa to account for aerosol hygroscopicity.,Nephelometry,Ambient local
KRSE,Korea,Seoul,37.5644,126.935,97,2020,10,13,5,28108,Estimated PM2.5 mass,5.2,Micrograms per cubic meter (ug/m3),183,Filter PM2.5 mass (28101) and Airphoton 3-wavelength integrating nephelometer. Dry scatter inferred to 550 nm using filter-specific kappa to account for aerosol hygroscopicity.,Nephelometry,Ambient local
KRSE,Korea,Seoul,37.5644,126.935,97,2020,10,13,6,28108,Estimated PM2.5 mass,3.8,Micrograms per cubic meter (ug/m3),183,Filter PM2.5 mass (28101) and Airphoton 3-wavelength integrating nephelometer. Dry scatter inferred to 550 nm using filter-specific kappa to account for aerosol hygroscopicity.,Nephelometry,Ambient local
KRSE,Korea,Seoul,37.5644,126.935,97,2020,10,13,7,28108,Estimated PM2.5 mass,3.8,Micrograms per cubic meter (ug/m3),183,Filter PM2.5 mass (28101) and Airphoton 3-wavelength integrating nephelometer. Dry scatter inferred to 550 nm using filter-specific kappa to account for aerosol hygroscopicity.,Nephelometry,Ambient local
KRSE,Korea,Seoul,37.5644,126.935,97,2020,10,13,8,28108,Estimated PM2.5 mass,4,Micrograms per cubic meter (ug/m3),183,Filter PM2.5 mass (28101) and Airphoton 3-wavelength integrating nephelometer. Dry scatter inferred to 550 nm using filter-specific kappa to account for aerosol hygroscopicity.,Nephelometry,Ambient local
KRSE,Korea,Seoul,37.5644,126.935,97,2020,10,13,9,28108,Estimated PM2.5 mass,5.1,Micrograms per cubic meter (ug/m3),183,Filter PM2.5 mass (28101) and Airphoton 3-wavelength integrating nephelometer. Dry scatter inferred to 550 nm using filter-specific kappa to account for aerosol hygroscopicity.,Nephelometry,Ambient local
KRSE,Korea,Seoul,37.5644,126.935,97,2020,10,13,10,28108,Estimated PM2.5 mass,6.4,Micrograms per cubic meter (ug/m3),183,Filter PM2.5 mass (28101) and Airphoton 3-wavelength integrating nephelometer. Dry scatter inferred to 550 nm using filter-specific kappa to account for aerosol hygroscopicity.,Nephelometry,Ambient local
KRSE,Korea,Seoul,37.5644,126.935,97,2020,10,13,11,28108,Estimated PM2.5 mass,6.8,Micrograms per cubic meter (ug/m3),183,Filter PM2.5 mass (28101) and Airphoton 3-wavelength integrating nephelometer. Dry scatter inferred to 550 nm using filter-specific kappa to account for aerosol hygroscopicity.,Nephelometry,Ambient local
KRSE,Korea,Seoul,37.5644,126.935,97,2020,10,13,12,28108,Estimated PM2.5 mass,8.7,Micrograms per cubic meter (ug/m3),183,Filter PM2.5 mass (28101) and Airphoton 3-wavelength integrating nephelometer. Dry scatter inferred to 550 nm using filter-specific kappa to account for aerosol hygroscopicity.,Nephelometry,Ambient local
KRSE,Korea,Seoul,37.5644,126.935,97,2020,10,13,13,28108,Estimated PM2.5 mass,9.7,Micrograms per cubic meter (ug/m3),183,Filter PM2.5 mass (28101) and Airphoton 3-wavelength integrating nephelometer. Dry scatter inferred to 550 nm using filter-specific kappa to account for aerosol hygroscopicity.,Nephelometry,Ambient local
KRSE,Korea,Seoul,37.5644,126.935,97,2020,10,13,14,28108,Estimated PM2.5 mass,9.7,Micrograms per cubic meter (ug/m3),183,Filter PM2.5 mass (28101) and Airphoton 3-wavelength integrating nephelometer. Dry scatter inferred to 550 nm using filter-specific kappa to account for aerosol hygroscopicity.,Nephelometry,Ambient local
KRSE,Korea,Seoul,37.5644,126.935,97,2020,10,13,15,28108,Estimated PM2.5 mass,8.1,Micrograms per cubic meter (ug/m3),183,Filter PM2.5 mass (28101) and Airphoton 3-wavelength integrating nephelometer. Dry scatter inferred to 550 nm using filter-specific kappa to account for aerosol hygroscopicity.,Nephelometry,Ambient local
KRSE,Korea,Seoul,37.5644,126.935,97,2020,10,13,16,28108,Estimated PM2.5 mass,12.2,Micrograms per cubic meter (ug/m3),183,Filter PM2.5 mass (28101) and Airphoton 3-wavelength integrating nephelometer. Dry scatter inferred to 550 nm using filter-specific kappa to account for aerosol hygroscopicity.,Nephelometry,Ambient local
KRSE,Korea,Seoul,37.5644,126.935,97,2020,10,13,17,28108,Estimated PM2.5 mass,13.1,Micrograms per cubic meter (ug/m3),183,Filter PM2.5 mass (28101) and Airphoton 3-wavelength integrating nephelometer. Dry scatter inferred to 550 nm using filter-specific kappa to account for aerosol hygroscopicity.,Nephelometry,Ambient local
KRSE,Korea,Seoul,37.5644,126.935,97,2020,10,13,18,28108,Estimated PM2.5 mass,23.4,Micrograms per cubic meter (ug/m3),183,Filter PM2.5 mass (28101) and Airphoton 3-wavelength integrating nephelometer. Dry scatter inferred to 550 nm using filter-specific kappa to account for aerosol hygroscopicity.,Nephelometry,Ambient local
KRSE,Korea,Seoul,37.5644,126.935,97,2020,10,13,19,28108,Estimated PM2.5 mass,17.6,Micrograms per cubic meter (ug/m3),183,Filter PM2.5 mass (28101) and Airphoton 3-wavelength integrating nephelometer. Dry scatter inferred to 550 nm using filter-specific kappa to account for aerosol hygroscopicity.,Nephelometry,Ambient local
KRSE,Korea,Seoul,37.5644,126.935,97,2020,10,13,20,28108,Estimated PM2.5 mass,12.5,Micrograms per cubic meter (ug/m3),183,Filter PM2.5 mass (28101) and Airphoton 3-wavelength integrating nephelometer. Dry scatter inferred to 550 nm using filter-specific kappa to account for aerosol hygroscopicity.,Nephelometry,Ambient local
KRSE,Korea,Seoul,37.5644,126.935,97,2020,10,13,21,28108,Estimated PM2.5 mass,10.8,Micrograms per cubic meter (ug/m3),183,Filter PM2.5 mass (28101) and Airphoton 3-wavelength integrating nephelometer. Dry scatter inferred to 550 nm using filter-specific kappa to account for aerosol hygroscopicity.,Nephelometry,Ambient local
KRSE,Korea,Seoul,37.5644,126.935,97,2020,10,13,22,28108,Estimated PM2.5 mass,10,Micrograms per cubic meter (ug/m3),183,Filter PM2.5 mass (28101) and Airphoton 3-wavelength integrating nephelometer. Dry scatter inferred to 550 nm using filter-specific kappa to account for aerosol hygroscopicity.,Nephelometry,Ambient local
KRSE,Korea,Seoul,37.5644,126.935,97,2020,10,13,23,28108,Estimated PM2.5 mass,13,Micrograms per cubic meter (ug/m3),183,Filter PM2.5 mass (28101) and Airphoton 3-wavelength integrating nephelometer. Dry scatter inferred to 550 nm using filter-specific kappa to account for aerosol hygroscopicity.,Nephelometry,Ambient local
KRSE,Korea,Seoul,37.5644,126.935,97,2020,10,14,0,28108,Estimated PM2.5 mass,14.3,Micrograms per cubic meter (ug/m3),183,Filter PM2.5 mass (28101) and Airphoton 3-wavelength integrating nephelometer. Dry scatter inferred to 550 nm using filter-specific kappa to account for aerosol hygroscopicity.,Nephelometry,Ambient local
KRSE,Korea,Seoul,37.5644,126.935,97,2020,10,14,1,28108,Estimated PM2.5 mass,13.5,Micrograms per cubic meter (ug/m3),183,Filter PM2.5 mass (28101) and Airphoton 3-wavelength integrating nephelometer. Dry scatter inferred to 550 nm using filter-specific kappa to account for aerosol hygroscopicity.,Nephelometry,Ambient local
KRSE,Korea,Seoul,37.5644,126.935,97,2020,10,14,2,28108,Estimated PM2.5 mass,6.8,Micrograms per cubic meter (ug/m3),183,Filter PM2.5 mass (28101) and Airphoton 3-wavelength integrating nephelometer. Dry scatter inferred to 550 nm using filter-specific kappa to account for aerosol hygroscopicity.,Nephelometry,Ambient local
KRSE,Korea,Seoul,37.5644,126.935,97,2020,10,14,3,28108,Estimated PM2.5 mass,7.8,Micrograms per cubic meter (ug/m3),183,Filter PM2.5 mass (28101) and Airphoton 3-wavelength integrating nephelometer. Dry scatter inferred to 550 nm using filter-specific kappa to account for aerosol hygroscopicity.,Nephelometry,Ambient local
KRSE,Korea,Seoul,37.5644,126.935,97,2020,10,14,4,28108,Estimated PM2.5 mass,3.7,Micrograms per cubic meter (ug/m3),183,Filter PM2.5 mass (28101) and Airphoton 3-wavelength integrating nephelometer. Dry scatter inferred to 550 nm using filter-specific kappa to account for aerosol hygroscopicity.,Nephelometry,Ambient local
KRSE,Korea,Seoul,37.5644,126.935,97,2020,10,14,5,28108,Estimated PM2.5 mass,4.1,Micrograms per cubic meter (ug/m3),183,Filter PM2.5 mass (28101) and Airphoton 3-wavelength integrating nephelometer. Dry scatter inferred to 550 nm using filter-specific kappa to account for aerosol hygroscopicity.,Nephelometry,Ambient local
KRSE,Korea,Seoul,37.5644,126.935,97,2020,10,14,6,28108,Estimated PM2.5 mass,5.2,Micrograms per cubic meter (ug/m3),183,Filter PM2.5 mass (28101) and Airphoton 3-wavelength integrating nephelometer. Dry scatter inferred to 550 nm using filter-specific kappa to account for aerosol hygroscopicity.,Nephelometry,Ambient local
KRSE,Korea,Seoul,37.5644,126.935,97,2020,10,14,7,28108,Estimated PM2.5 mass,4.1,Micrograms per cubic meter (ug/m3),183,Filter PM2.5 mass (28101) and Airphoton 3-wavelength integrating nephelometer. Dry scatter inferred to 550 nm using filter-specific kappa to account for aerosol hygroscopicity.,Nephelometry,Ambient local
KRSE,Korea,Seoul,37.5644,126.935,97,2020,10,14,8,28108,Estimated PM2.5 mass,3.6,Micrograms per cubic meter (ug/m3),183,Filter PM2.5 mass (28101) and Airphoton 3-wavelength integrating nephelometer. Dry scatter inferred to 550 nm using filter-specific kappa to account for aerosol hygroscopicity.,Nephelometry,Ambient local
KRSE,Korea,Seoul,37.5644,126.935,97,2020,10,14,9,28108,Estimated PM2.5 mass,5.8,Micrograms per cubic meter (ug/m3),183,Filter PM2.5 mass (28101) and Airphoton 3-wavelength integrating nephelometer. Dry scatter inferred to 550 nm using filter-specific kappa to account for aerosol hygroscopicity.,Nephelometry,Ambient local
KRSE,Korea,Seoul,37.5644,126.935,97,2020,10,14,10,28108,Estimated PM2.5 mass,7.4,Micrograms per cubic meter (ug/m3),183,Filter PM2.5 mass (28101) and Airphoton 3-wavelength integrating nephelometer. Dry scatter inferred to 550 nm using filter-specific kappa to account for aerosol hygroscopicity.,Nephelometry,Ambient local
KRSE,Korea,Seoul,37.5644,126.935,97,2020,10,14,11,28108,Estimated PM2.5 mass,7.5,Micrograms per cubic meter (ug/m3),183,Filter PM2.5 mass (28101) and Airphoton 3-wavelength integrating nephelometer. Dry scatter inferred to 550 nm using filter-specific kappa to account for aerosol hygroscopicity.,Nephelometry,Ambient local
KRSE,Korea,Seoul,37.5644,126.935,97,2020,10,14,12,28108,Estimated PM2.5 mass,8.6,Micrograms per cubic meter (ug/m3),183,Filter PM2.5 mass (28101) and Airphoton 3-wavelength integrating nephelometer. Dry scatter inferred to 550 nm using filter-specific kappa to account for aerosol hygroscopicity.,Nephelometry,Ambient local
KRSE,Korea,Seoul,37.5644,126.935,97,2020,10,14,13,28108,Estimated PM2.5 mass,9.4,Micrograms per cubic meter (ug/m3),183,Filter PM2.5 mass (28101) and Airphoton 3-wavelength integrating nephelometer. Dry scatter inferred to 550 nm using filter-specific kappa to account for aerosol hygroscopicity.,Nephelometry,Ambient local
KRSE,Korea,Seoul,37.5644,126.935,97,2020,10,14,14,28108,Estimated PM2.5 mass,8.6,Micrograms per cubic meter (ug/m3),183,Filter PM2.5 mass (28101) and Airphoton 3-wavelength integrating nephelometer. Dry scatter inferred to 550 nm using filter-specific kappa to account for aerosol hygroscopicity.,Nephelometry,Ambient local
KRSE,Korea,Seoul,37.5644,126.935,97,2020,10,14,15,28108,Estimated PM2.5 mass,8,Micrograms per cubic meter (ug/m3),183,Filter PM2.5 mass (28101) and Airphoton 3-wavelength integrating nephelometer. Dry scatter inferred to 550 nm using filter-specific kappa to account for aerosol hygroscopicity.,Nephelometry,Ambient local
KRSE,Korea,Seoul,37.5644,126.935,97,2020,10,14,16,28108,Estimated PM2.5 mass,7.6,Micrograms per cubic meter (ug/m3),183,Filter PM2.5 mass (28101) and Airphoton 3-wavelength integrating nephelometer. Dry scatter inferred to 550 nm using filter-specific kappa to account for aerosol hygroscopicity.,Nephelometry,Ambient local
KRSE,Korea,Seoul,37.5644,126.935,97,2020,10,14,17,28108,Estimated PM2.5 mass,5.6,Micrograms per cubic meter (ug/m3),183,Filter PM2.5 mass (28101) and Airphoton 3-wavelength integrating nephelometer. Dry scatter inferred to 550 nm using filter-specific kappa to account for aerosol hygroscopicity.,Nephelometry,Ambient local
KRSE,Korea,Seoul,37.5644,126.935,97,2020,10,14,18,28108,Estimated PM2.5 mass,4.4,Micrograms per cubic meter (ug/m3),183,Filter PM2.5 mass (28101) and Airphoton 3-wavelength integrating nephelometer. Dry scatter inferred to 550 nm using filter-specific kappa to account for aerosol hygroscopicity.,Nephelometry,Ambient local
KRSE,Korea,Seoul,37.5644,126.935,97,2020,10,14,19,28108,Estimated PM2.5 mass,4.4,Micrograms per cubic meter (ug/m3),183,Filter PM2.5 mass (28101) and Airphoton 3-wavelength integrating nephelometer. Dry scatter inferred to 550 nm using filter-specific kappa to account for aerosol hygroscopicity.,Nephelometry,Ambient local
KRSE,Korea,Seoul,37.5644,126.935,97,2020,10,14,20,28108,Estimated PM2.5 mass,4.6,Micrograms per cubic meter (ug/m3),183,Filter PM2.5 mass (28101) and Airphoton 3-wavelength integrating nephelometer. Dry scatter inferred to 550 nm using filter-specific kappa to account for aerosol hygroscopicity.,Nephelometry,Ambient local
KRSE,Korea,Seoul,37.5644,126.935,97,2020,10,14,21,28108,Estimated PM2.5 mass,5,Micrograms per cubic meter (ug/m3),183,Filter PM2.5 mass (28101) and Airphoton 3-wavelength integrating nephelometer. Dry scatter inferred to 550 nm using filter-specific kappa to account for aerosol hygroscopicity.,Nephelometry,Ambient local
KRSE,Korea,Seoul,37.5644,126.935,97,2020,10,14,22,28108,Estimated PM2.5 mass,6.1,Micrograms per cubic meter (ug/m3),183,Filter PM2.5 mass (28101) and Airphoton 3-wavelength integrating nephelometer. Dry scatter inferred to 550 nm using filter-specific kappa to account for aerosol hygroscopicity.,Nephelometry,Ambient local
KRSE,Korea,Seoul,37.5644,126.935,97,2020,10,14,23,28108,Estimated PM2.5 mass,6.5,Micrograms per cubic meter (ug/m3),183,Filter PM2.5 mass (28101) and Airphoton 3-wavelength integrating nephelometer. Dry scatter inferred to 550 nm using filter-specific kappa to account for aerosol hygroscopicity.,Nephelometry,Ambient local
KRSE,Korea,Seoul,37.5644,126.935,97,2020,10,15,0,28108,Estimated PM2.5 mass,7,Micrograms per cubic meter (ug/m3),183,Filter PM2.5 mass (28101) and Airphoton 3-wavelength integrating nephelometer. Dry scatter inferred to 550 nm using filter-specific kappa to account for aerosol hygroscopicity.,Nephelometry,Ambient local
KRSE,Korea,Seoul,37.5644,126.935,97,2020,10,15,1,28108,Estimated PM2.5 mass,7.7,Micrograms per cubic meter (ug/m3),183,Filter PM2.5 mass (28101) and Airphoton 3-wavelength integrating nephelometer. Dry scatter inferred to 550 nm using filter-specific kappa to account for aerosol hygroscopicity.,Nephelometry,Ambient local
KRSE,Korea,Seoul,37.5644,126.935,97,2020,10,15,2,28108,Estimated PM2.5 mass,6.2,Micrograms per cubic meter (ug/m3),183,Filter PM2.5 mass (28101) and Airphoton 3-wavelength integrating nephelometer. Dry scatter inferred to 550 nm using filter-specific kappa to account for aerosol hygroscopicity.,Nephelometry,Ambient local
KRSE,Korea,Seoul,37.5644,126.935,97,2020,10,15,3,28108,Estimated PM2.5 mass,7.1,Micrograms per cubic meter (ug/m3),183,Filter PM2.5 mass (28101) and Airphoton 3-wavelength integrating nephelometer. Dry scatter inferred to 550 nm using filter-specific kappa to account for aerosol hygroscopicity.,Nephelometry,Ambient local
KRSE,Korea,Seoul,37.5644,126.935,97,2020,10,15,4,28108,Estimated PM2.5 mass,8,Micrograms per cubic meter (ug/m3),183,Filter PM2.5 mass (28101) and Airphoton 3-wavelength integrating nephelometer. Dry scatter inferred to 550 nm using filter-specific kappa to account for aerosol hygroscopicity.,Nephelometry,Ambient local
KRSE,Korea,Seoul,37.5644,126.935,97,2020,10,15,5,28108,Estimated PM2.5 mass,7.9,Micrograms per cubic meter (ug/m3),183,Filter PM2.5 mass (28101) and Airphoton 3-wavelength integrating nephelometer. Dry scatter inferred to 550 nm using filter-specific kappa to account for aerosol hygroscopicity.,Nephelometry,Ambient local
KRSE,Korea,Seoul,37.5644,126.935,97,2020,10,15,6,28108,Estimated PM2.5 mass,6.7,Micrograms per cubic meter (ug/m3),183,Filter PM2.5 mass (28101) and Airphoton 3-wavelength integrating nephelometer. Dry scatter inferred to 550 nm using filter-specific kappa to account for aerosol hygroscopicity.,Nephelometry,Ambient local